Regional Weather Roundup
Issued by NWS

Home | Current Version | Previous Version | Graphics & Text | Print | Product List | Glossary On
Versions: 1 2 3 4 5 6 7 8 9 10 11 12 13 14 15 16 17 18 19 20 21 22 23 24 25 26 27 28 29 30 31 32 33 34 35 36 37 38 39 40 41 42 43 44 45 46 47 48 49 50
000
ASUS45 KTFX 221010
RWRMT
MONTANA REGIONAL WEATHER ROUNDUP
NATIONAL WEATHER SERVICE GREAT FALLS MT
400 AM MDT WED MAR 22 2017

NOTE: "FAIR" INDICATES FEW OR NO CLOUDS BELOW 12000 FEET WITH NO
SIGNIFICANT WEATHER AND/OR OBSTRUCTIONS TO VISIBILITY.

MTZ001>007-043-221100-
WEST OF THE DIVIDE

CITY           SKY/WX    TMP DP  RH WIND       PRES   REMARKS
KALISPELL      LGT RAIN  40  38  93 CALM      29.81R
MISSOULA       MOCLDY    37  37 100 CALM      29.84R
BUTTE          CLOUDY    38  35  89 SE7       29.83S
ANACONDA         N/A     37  34  87 N5        29.83R
DEER LODGE       N/A     37  37 100 N3        29.84S
EUREKA           N/A     36  34  93 CALM      29.80F
HAMILTON         N/A     41  36  81 S8        29.84R
PLAINS           N/A     41  33  73 CALM      29.84R
RONAN            N/A     42  39  89 CALM      29.88R
$$

MTZ008-052>055-221100-
SOUTHWEST MONTANA

CITY           SKY/WX    TMP DP  RH WIND       PRES   REMARKS
BOZEMAN        LGT RAIN  36  35  96 SE13      29.86F WCI  27
DILLON         CLOUDY    39  33  79 S7        29.84R
W YELLOWSTONE  CLOUDY    36  36 100 E7        29.92S WCI  30
ENNIS          CLOUDY    43  39  87 SE13      29.90F
THREE FORKS      N/A     38  -4  16 CALM      29.84F
TWIN BRIDGES     N/A     41  34  76 E9        29.84S
$$

MTZ009-010-012-014-046-048-049-054-221100-
EAST SLOPES AND CENTRAL MONTANA

CITY           SKY/WX    TMP DP  RH WIND       PRES   REMARKS
CUT BANK       CLOUDY    32  31  96 SE9       29.68F FOG     WCI  24
GREAT FALLS    CLOUDY    45  32  60 S20       29.73R
HELENA         CLOUDY    39  35  86 CALM      29.80R
AUGUSTA        CLOUDY    41  36  82 SW8       29.70F
BOWMANS CRNR   MOCLDY    42  35  77 S13       29.73R
CHOTEAU          N/A     37  37 100 CALM      29.72F
CONRAD           N/A     35  35 100 W3        29.76F
FAIRFIELD      MOCLDY    39  34  81 CALM      29.71R
POWER          MOCLDY    40  32  74 S14       29.72R
RAYNESFORD     MOCLDY    43  35  71 E7        29.73F
$$

MTZ011-013-016-021-045-047-050-051-221100-
NORTH CENTRAL MONTANA

CITY           SKY/WX    TMP DP  RH WIND       PRES   REMARKS
HAVRE          CLOUDY    32  31  96 CALM      29.74F
LEWISTOWN      CLOUDY    32  30  92 S7        29.76R WCI  26
N BAR RANCH      N/A     46  37  71 SW18G28   29.76F
CHINOOK          N/A     34  32  93 E9        29.75F WCI  26
DENTON         FOG       33  32  96 E10       29.73F VSB 7/8 WCI  25
GEYSER         MOCLDY    36  32  85 SW6       29.74F WCI  31
GRASS RANGE    MOCLDY    33  33 100 W7        29.71F FOG     WCI  27
STANFORD       MOCLDY    36  31  85 S5        29.76R
WINIFRED       FOG       34 N/A N/A CALM      29.76S VSB 3/8
$$

MTZ017>020-022>027-061-062-221100-
NORTHEAST MONTANA

CITY           SKY/WX    TMP DP  RH WIND       PRES   REMARKS
GLASGOW        CLOUDY    33  28  81 SE15      29.88F WCI  23
JORDAN           N/A     33  30  88 SE15      29.84F WCI  23
SIDNEY         CLOUDY   N/A N/A N/A S16G25    30.01F
WOLF POINT     CLOUDY    35  27  72 SE8       29.96F WCI  29
MALTA          CLOUDY    34  32  93 SE10G17   29.82F WCI  26
PLENTYWOOD       N/A     27  19  74 SE21      29.98F WCI  13
POPLAR           N/A     32  25  74 SE13      29.97F WCI  22
SCOBEY           N/A     30  16  56 SE16      29.92F WCI  19
$$

MTZ028>42-056>058-221100-
SOUTHCENTRAL AND SOUTHEAST MONTANA

CITY           SKY/WX    TMP DP  RH WIND       PRES   REMARKS
BAKER          CLOUDY    28  24  85 SE31G39   29.95F WCI  12
BILLINGS       DRZL/FOG  36  35  96 W5        29.83R VSB 1/2
LIVINGSTON     CLOUDY    34  32  92 NW16      29.85R WCI  24
MILES CITY     CLOUDY    33  28  81 SE15      29.88F WCI  23
BIG TIMBER     CLOUDY    34  34 100 SW9       29.83F WCI  26
EKALAKA          N/A     28  25  89 SE26      29.84F WCI  13
FORSYTH          N/A     34  34 100 E7        29.83F WCI  28
HARLOWTON      CLOUDY    34  33  98 W6        29.81F WCI  29
LAUREL           N/A     37  33  85 CALM      29.83S VSB 0
$$

REGIONAL REPORTS...DAKOTAS

CITY           SKY/WX    TMP DP  RH WIND       PRES   REMARKS
WILLISTON      CLOUDY    29  21  72 SE13G20   30.06F WCI  19
MINOT          CLOUDY    23  17  78 SE18      30.22F WCI   9
DICKINSON      CLOUDY    26  19  74 SE23G36   30.04F WCI  11
BEACH            N/A    N/A N/A N/A MISG        N/A
TIOGA          MOCLDY    23  23 100 SE22G29   30.10F WCI   8
WATFORD CITY   CLOUDY    28  21  74 SE16      30.05F WCI  17
BISMARCK       CLOUDY    24  17  74 SE20      30.27F WCI  10
GRAND FORKS    CLOUDY    18   9  68 SE6       30.49S WCI  10
FARGO          CLOUDY    20   9  62 SE9       30.48F WCI   9
BUFFALO SD       N/A     28  25  88 SE29      29.92F WCI  12
RAPID CITY     CLOUDY    31  30  96 S16       30.04F WCI  20
$$

REGIONAL REPORTS...WYOMING/IDAHO/WASHINGTON

CITY           SKY/WX    TMP DP  RH WIND       PRES   REMARKS
GILLETTE       CLOUDY    33  31  92 S29G35    29.87F WCI  19
SHERIDAN       FOG       35  34  96 VRB3      29.80F VSB 1/4
BUFFALO WY     CLOUDY    38  34  85 SE13      29.83F WCI  30
CODY           CLOUDY    35  34  96 CALM      29.83F
YELLOWSTONE LA   N/A     32  32 100 E5        29.97F
IDAHO FALLS    MOCLDY    45  41  86 SW13      29.92F
SALMON         CLEAR     39  30  70 CALM      29.86R
BOISE          MOCLDY    46  39  76 SE10      29.90S
SPOKANE        CLOUDY    41  40  96 S5        29.83R
$$

REGIONAL REPORTS...ALBERTA

CITY           SKY/WX    TMP DP  RH WIND       PRES   REMARKS
EDMONTON       CLOUDY    30  23  74 E12       29.66F WCI  21
CALGARY        MOCLDY    34  27  75 S9        29.57F WCI  26
LETHBRIDGE     LGT RAIN  39  34  81 S8        29.62S
MEDICINE HAT   LGT RAIN  39  32  75 SE12      29.66F WCI  32
WATERTON GATE    N/A     39  34  81 SW22G30     N/A  WCI  29
CARDSTON         N/A     45  34  65 SW12G17     N/A
MILK RIVER       N/A     34  32  93 S20G25      N/A  WCI  22
$$

REGIONAL REPORTS...SASKATCHEWAN

CITY           SKY/WX    TMP DP  RH WIND       PRES   REMARKS
SWIFT CURRENT  CLOUDY    32  27  80 S23G30    29.78F WCI  19
REGINA         MOCLDY    19  16  86 SE23G33   30.02F WCI   2
SASKATOON      CLOUDY    25  16  68 SE15G24   29.96F WCI  12
CYPRESS HILLS    N/A     28  27  93 S15G21      N/A  WCI  17
VAL MARIE        N/A     32  28  86 SE17G23     N/A  WCI  21
ROCKGLEN         N/A     28  23  80 S22G32      N/A  WCI  15
ASSINIBOIA       N/A     30  23  74 E10         N/A  WCI  21
$$



USA.gov is the U.S. government's official web portal to all federal, state and local government web resources and services.